Location: Keppel Henge
(44.7900°N, 80.9447°W)
Time: 06:32:56
(UTC-04:00)

Tiangong 2 - Visible Passes

Search period start: 21 June 2018 00:00
Search period end: 01 July 2018 00:00
Orbit: 291 x 297 km, 42.8° (Epoch: 21 June)

Date Brightness Start Highest point End Pass type
(mag) Time Alt. Az. Time Alt. Az. Time Alt. Az.
27 Jun 3.0 04:51:31 10° S 04:52:46 13° SSE 04:54:00 10° ESE visible
28 Jun 2.3 04:56:11 10° SSW 04:58:12 20° SSE 05:00:12 10° ESE visible
29 Jun 1.6 05:01:17 10° SW 05:03:35 30° SSE 05:05:55 10° E visible
30 Jun 3.2 03:35:44 12° SE 03:35:44 12° SE 03:36:08 10° ESE visible
